RYR825 LEMG-LPFR

Flight info

Callsign RYR825
Flight time N/A
Altitude 25000
Route SVL N747 NAPES Y136 NIRAK
Aircraft B38M/M-SDE1FGHILORVWXY/HB1

Departure

Time 2026-04-30 22:35
Airport Málaga-Costa del Sol Airport (LEMG)

Arrival

Time N/A
Airport Faro - Gago Coutinho International Airport (LPFR)
Time Latitude Longitude Altitude Speed Heading
2026-04-30 22:03 36.67764 -4.49613 44 ft 0 kts 41°
2026-04-30 22:23 36.67759 -4.49619 44 ft 3 kts 42°
2026-04-30 22:23 36.67746 -4.49642 42 ft 4 kts 88°
2026-04-30 22:24 36.67754 -4.49670 40 ft 4 kts 130°
2026-04-30 22:24 36.67761 -4.49680 43 ft 1 kts 131°
2026-04-30 22:24 36.67762 -4.49680 43 ft 0 kts 131°
2026-04-30 22:29 36.67727 -4.49648 43 ft 11 kts 150°
2026-04-30 22:29 36.67652 -4.49557 43 ft 20 kts 131°
2026-04-30 22:30 36.67337 -4.49396 45 ft 21 kts 132°
2026-04-30 22:31 36.66902 -4.48783 39 ft 29 kts 133°
2026-04-30 22:32 36.66631 -4.48502 37 ft 0 kts 211°
2026-04-30 22:33 36.66575 -4.48558 41 ft 11 kts 225°
2026-04-30 22:34 36.67120 -4.49388 50 ft 132 kts 312°
2026-04-30 22:35 36.68642 -4.51570 1166 ft 180 kts 308°
2026-04-30 22:36 36.72038 -4.56846 3702 ft 231 kts 310°
2026-04-30 22:36 36.73079 -4.58333 4668 ft 225 kts 311°
2026-04-30 22:37 36.77502 -4.60268 6922 ft 240 kts 345°
2026-04-30 22:37 36.79124 -4.60772 7698 ft 241 kts 343°
2026-04-30 22:37 36.82432 -4.61894 8912 ft 256 kts 342°
2026-04-30 22:38 36.85892 -4.63123 9001 ft 259 kts 341°
2026-04-30 22:38 36.89355 -4.64431 9100 ft 266 kts 332°
2026-04-30 22:39 36.90827 -4.65862 9535 ft 276 kts 304°
2026-04-30 22:39 36.92571 -4.73054 10960 ft 313 kts 281°
2026-04-30 22:40 36.94096 -4.81314 12037 ft 328 kts 281°
2026-04-30 22:41 36.95609 -4.89663 12113 ft 328 kts 281°
2026-04-30 22:41 36.96614 -4.95235 13153 ft 329 kts 280°
2026-04-30 22:42 36.98666 -5.06656 16168 ft 344 kts 280°
2026-04-30 22:43 36.99720 -5.12551 17622 ft 351 kts 280°
2026-04-30 22:43 37.02045 -5.17949 18906 ft 368 kts 314°
2026-04-30 22:44 37.06073 -5.22005 20133 ft 375 kts 317°
2026-04-30 22:45 37.14445 -5.30149 22469 ft 387 kts 318°
2026-04-30 22:45 37.18743 -5.34310 23599 ft 393 kts 317°
2026-04-30 22:46 37.23102 -5.38535 24527 ft 399 kts 317°
2026-04-30 22:47 37.30332 -5.48690 25127 ft 389 kts 296°
2026-04-30 22:47 37.33037 -5.54570 25129 ft 388 kts 295°
2026-04-30 22:48 37.35699 -5.60467 25126 ft 388 kts 295°
2026-04-30 22:49 37.39672 -5.69321 25125 ft 387 kts 295°
2026-04-30 22:49 37.42010 -5.78658 25140 ft 373 kts 261°
2026-04-30 22:50 37.40038 -5.91467 25131 ft 373 kts 257°
2026-04-30 22:51 37.38920 -5.97831 25130 ft 373 kts 256°
2026-04-30 22:51 37.37785 -6.04182 25126 ft 365 kts 256°
2026-04-30 22:52 37.37241 -6.07220 25149 ft 349 kts 256°
2026-04-30 22:52 37.36218 -6.12912 25021 ft 325 kts 256°
2026-04-30 22:53 37.35226 -6.18412 24450 ft 323 kts 256°
2026-04-30 22:53 37.34226 -6.23943 23757 ft 329 kts 256°
2026-04-30 22:53 37.33711 -6.26781 23321 ft 328 kts 256°
2026-04-30 22:54 37.32709 -6.32297 22543 ft 323 kts 256°
2026-04-30 22:55 37.31226 -6.40436 21473 ft 315 kts 256°
2026-04-30 22:55 37.30256 -6.45743 20781 ft 309 kts 256°
2026-04-30 22:56 37.29300 -6.50963 20110 ft 304 kts 256°
2026-04-30 22:56 37.27884 -6.58655 19082 ft 298 kts 256°
2026-04-30 22:57 37.26955 -6.63688 18465 ft 294 kts 256°
2026-04-30 22:57 37.26035 -6.68657 17784 ft 293 kts 256°
2026-04-30 22:58 37.25098 -6.73712 17115 ft 305 kts 256°
2026-04-30 22:59 37.23600 -6.81756 16132 ft 319 kts 256°
2026-04-30 22:59 37.22089 -6.89843 15036 ft 315 kts 256°